Location: Oberkirch
(48.5323°N, 8.0787°E)
Time: 15:08:08
(UTC+00:00)

S-56A Canister/Altair - Pass Details

Date: 22 February 2026
Orbit: 633 x 2484 km, 38.9° (Epoch: 7 March)

Event Time Altitude Azimuth Distance (km) Brightness Sun altitude
Exits shadow 02:41:28 20° 162° (SSE) 3,244 10.5 -36.4°
Drops below altitude 10° 02:45:15 10° 147° (SSE) 4,227 11.3 -35.8°
Sets 02:49:52 0° 138° (SE) 5,522 12.1 -35.2°
